Showing default

QIANFAN-60, 62790

Orbit data source: Space-Track

QIANFAN-60, 62790 is a Chinese payload satellite in LEO that was launched on Thu, 23 Jan 2025 UTC via a CHANG ZHENG 6A launch vehicle from the Taiyaun Space Center, China (TSC). Payload-class satellites include a variety of spacecraft equipped with specific instruments for various scientific and technological missions. These include communications satellites like Starlink; space stations such as the ISS; scientific satellites like the Hubble; Earth observation satellites from companies like Planet Labs, Umbra, and HawkEye 360; GPS; miniature CubeSats for education and research; and military/defense satellites.

Loading next visibility...
Identifier
62790, 2025-016F
Orbit
LEO
Country
Flag of CNCN / PRC
Related business
Manufacturer
SECM
Mission
Operational Commercial Communications
Bus & Motor
QIANFAN, Unknown motor
Mass
267 kg wet, ~267 kg dry
Launch date (UTC)
2025-01-23 (9 months ago)
Launch vehicle
CHANG ZHENG 6A
Launch site
Taiyaun Space Center, China (TSC)
Object type
Payload
Rocket body
Debris
Shape & HBR
Box + 1 Pan, 1.2 m
Radar Cross Section
13.200 m², Large (>1 m²)

Expand to show TLE details & history
Last TLE update: 1 day ago

TLE from 1 day ago
0 QIANFAN-60
1 62790U 25016F   25306.48899514  .00000070  00000-0  88877-4 0  9991
2 62790  88.9726 107.2399 0017482  99.4201 260.8928 13.50973202 41792
Epoch: 2025-11-02T11:44Z
TLE epoch observation values (Epoch: 2025-11-02T11:44:09.180Z)
Latitude
0.00007°
Longitude
-110.80234°
Altitude
1,073.716 km
Speed
7.314 km/s
True Right ascension
07h 08m 57s
True Declination
0° 00' 00"
Sunlit
Object was in daylight at epoch
Visualization orbit readout
Latitude
Unknown
Longitude
Unknown
Altitude
Unknown
Speed
Unknown
Apparent Right ascension
Unknown
Apparent Declination
Unknown
Sunlit
N/A
Visualization observer readout
Local Sidereal Time
14:41:30
Azimuth
Unknown
Elevation
Unknown
Doppler factor
Unknown
Orbital elements
Apogee altitude
1,078.745 km
Perigee altitude
1,052.718 km
Semi-major axis
7,443.868 km
Eccentricity
0.00175
Inclination
88.9726°
RAAN
107.2399°
Arg. of periapsis
99.4201°
True anomaly
260.69507°
Mean anomaly
260.8928°
Eccentric anomaly
260.79393°
Mean motion
3.37944 °/min
Orbital period
106.53 mins
BSTAR
0.000088877
Loading maneuver chart data...
Computing Atmospheric mass density...
Loading historical data...
Loading historical data...
Loading historical data...
Loading historical data...
Loading historical data...
Loading historical data...
Loading historical data...

Documentation

Showing up to 5 results
|